TimeEDT,TemperatureF,Dew PointF,Humidity,Sea Level PressureIn,VisibilityMPH,Wind Direction,Wind SpeedMPH,Gust SpeedMPH,PrecipitationIn,Events,Conditions,WindDirDegrees,DateUTC
12:15 AM,40.1,29.5,66,30.05,10.0,SSW,3.5,-,N/A,,Mostly Cloudy,200,2013-03-23 04:15:00
12:35 AM,40.3,30.2,67,30.05,10.0,Calm,Calm,-,N/A,,Mostly Cloudy,0,2013-03-23 04:35:00
1:15 AM,42.3,29.1,60,30.05,10.0,WSW,3.5,-,N/A,,Overcast,240,2013-03-23 05:15:00
1:35 AM,42.3,28.8,59,30.04,10.0,Calm,Calm,-,N/A,,Overcast,0,2013-03-23 05:35:00
1:55 AM,41.2,28.9,62,30.04,10.0,Calm,Calm,-,N/A,,Mostly Cloudy,0,2013-03-23 05:55:00
2:15 AM,41.5,28.6,60,30.04,10.0,Calm,Calm,-,N/A,,Scattered Clouds,0,2013-03-23 06:15:00
2:35 AM,37.8,29.3,72,30.04,10.0,SSW,3.5,-,N/A,,Clear,210,2013-03-23 06:35:00
2:55 AM,40.3,28.4,63,30.04,10.0,Calm,Calm,-,N/A,,Clear,0,2013-03-23 06:55:00
3:15 AM,36.5,29.3,75,30.03,10.0,Calm,Calm,-,N/A,,Clear,0,2013-03-23 07:15:00
3:35 AM,35.6,29.8,80,30.03,10.0,Calm,Calm,-,N/A,,Clear,0,2013-03-23 07:35:00
4:15 AM,37.2,29.3,73,30.01,10.0,Calm,Calm,-,N/A,,Clear,0,2013-03-23 08:15:00
4:35 AM,36.7,28.9,74,30.01,10.0,Calm,Calm,-,N/A,,Clear,0,2013-03-23 08:35:00
4:55 AM,34.7,28.9,79,30.01,10.0,Calm,Calm,-,N/A,,Clear,0,2013-03-23 08:55:00
5:15 AM,33.4,29.3,85,30.02,10.0,Calm,Calm,-,N/A,,Clear,0,2013-03-23 09:15:00
5:35 AM,34.7,29.5,81,30.02,10.0,Calm,Calm,-,N/A,,Clear,0,2013-03-23 09:35:00
5:55 AM,34.0,29.3,83,30.03,10.0,Calm,Calm,-,N/A,,Clear,0,2013-03-23 09:55:00
6:15 AM,34.9,29.8,82,30.02,10.0,Calm,Calm,-,N/A,,Clear,0,2013-03-23 10:15:00
6:35 AM,33.8,29.3,84,30.02,10.0,Calm,Calm,-,N/A,,Clear,0,2013-03-23 10:35:00
7:15 AM,34.9,29.7,81,30.02,10.0,Calm,Calm,-,N/A,,Clear,0,2013-03-23 11:15:00
7:35 AM,34.3,29.8,84,30.02,7.0,Calm,Calm,-,N/A,,Clear,0,2013-03-23 11:35:00
7:55 AM,35.4,30.7,83,30.03,10.0,Calm,Calm,-,N/A,,Clear,0,2013-03-23 11:55:00
8:15 AM,38.1,31.8,78,30.03,10.0,Calm,Calm,-,N/A,,Scattered Clouds,0,2013-03-23 12:15:00
8:35 AM,40.1,31.5,71,30.04,10.0,Calm,Calm,-,N/A,,Scattered Clouds,0,2013-03-23 12:35:00
9:15 AM,42.3,31.5,66,30.04,10.0,Calm,Calm,-,N/A,,Mostly Cloudy,0,2013-03-23 13:15:00
9:35 AM,43.2,31.6,64,30.04,10.0,Calm,Calm,-,N/A,,Overcast,0,2013-03-23 13:35:00
9:55 AM,44.1,31.5,61,30.05,10.0,West,3.5,-,N/A,Rain,Light Rain,280,2013-03-23 13:55:00
10:15 AM,44.6,32.4,62,30.05,10.0,WNW,3.5,-,N/A,,Drizzle,300,2013-03-23 14:15:00
10:35 AM,44.8,33.8,65,30.05,7.0,Calm,Calm,-,N/A,Rain,Rain,0,2013-03-23 14:35:00
10:55 AM,44.1,35.4,72,30.05,7.0,Calm,Calm,-,N/A,Rain,Light Rain,0,2013-03-23 14:55:00
11:15 AM,43.9,36.0,74,30.06,7.0,Calm,Calm,-,N/A,Rain,Light Rain,0,2013-03-23 15:15:00
11:35 AM,43.7,36.5,76,30.06,7.0,WNW,4.6,-,N/A,Rain,Light Rain,300,2013-03-23 15:35:00
11:55 AM,43.9,36.9,76,30.06,7.0,Calm,Calm,-,0.01,Rain,Light Rain,0,2013-03-23 15:55:00
12:15 PM,44.4,38.5,80,30.06,7.0,NNW,3.5,-,N/A,,Light Drizzle,330,2013-03-23 16:15:00
12:35 PM,44.4,37.0,75,30.06,10.0,Calm,Calm,-,N/A,,Light Drizzle,0,2013-03-23 16:35:00
12:55 PM,45.0,37.4,75,30.05,10.0,Calm,Calm,-,N/A,,Overcast,0,2013-03-23 16:55:00
1:15 PM,44.8,36.9,74,30.04,10.0,Calm,Calm,-,N/A,,Overcast,0,2013-03-23 17:15:00
1:35 PM,45.1,37.6,75,30.04,10.0,Calm,Calm,-,N/A,,Overcast,0,2013-03-23 17:35:00
1:55 PM,45.0,36.3,72,30.04,10.0,Calm,Calm,-,N/A,,Overcast,0,2013-03-23 17:55:00
2:15 PM,45.5,36.0,69,30.03,10.0,Calm,Calm,-,N/A,,Overcast,0,2013-03-23 18:15:00
2:35 PM,46.0,36.0,68,30.01,10.0,Calm,Calm,-,N/A,,Overcast,0,2013-03-23 18:35:00
2:55 PM,46.9,35.2,64,30.01,10.0,SSE,3.5,-,N/A,,Overcast,150,2013-03-23 18:55:00
3:15 PM,48.6,37.2,65,29.98,10.0,SSE,3.5,-,N/A,,Overcast,150,2013-03-23 19:15:00
3:35 PM,49.3,36.9,62,29.98,10.0,Calm,Calm,-,N/A,,Overcast,0,2013-03-23 19:35:00
3:55 PM,51.4,38.3,61,29.97,10.0,Calm,Calm,-,N/A,,Overcast,0,2013-03-23 19:55:00
4:15 PM,52.2,37.4,57,29.96,10.0,Calm,Calm,-,N/A,,Overcast,0,2013-03-23 20:15:00
4:35 PM,53.1,37.6,56,29.95,10.0,NNE,3.5,-,N/A,,Overcast,20,2013-03-23 20:35:00
4:55 PM,54.0,37.9,55,29.94,10.0,NNW,3.5,-,N/A,,Overcast,340,2013-03-23 20:55:00
5:15 PM,54.0,38.3,55,29.94,10.0,Calm,Calm,-,N/A,,Overcast,0,2013-03-23 21:15:00
5:35 PM,54.5,38.8,56,29.93,10.0,Calm,Calm,-,N/A,,Overcast,0,2013-03-23 21:35:00
5:55 PM,55.0,39.4,56,29.92,10.0,Calm,Calm,-,N/A,,Scattered Clouds,0,2013-03-23 21:55:00
6:15 PM,55.4,39.7,56,29.91,10.0,Calm,Calm,-,N/A,,Clear,0,2013-03-23 22:15:00
6:35 PM,54.7,39.6,57,29.92,10.0,Calm,Calm,-,N/A,,Clear,0,2013-03-23 22:35:00
6:55 PM,54.9,39.6,56,29.91,10.0,Calm,Calm,-,N/A,,Clear,0,2013-03-23 22:55:00
7:15 PM,54.0,40.3,60,29.92,10.0,Calm,Calm,-,N/A,,Clear,0,2013-03-23 23:15:00
7:35 PM,52.2,40.6,65,29.93,10.0,Calm,Calm,-,N/A,,Clear,0,2013-03-23 23:35:00
7:55 PM,50.5,41.5,71,29.95,10.0,Calm,Calm,-,N/A,,Mostly Cloudy,0,2013-03-23 23:55:00
8:15 PM,50.4,42.1,73,29.96,10.0,Calm,Calm,-,N/A,,Overcast,0,2013-03-24 00:15:00
8:35 PM,51.1,42.1,71,29.97,10.0,Calm,Calm,-,N/A,,Overcast,0,2013-03-24 00:35:00
8:55 PM,51.1,42.1,71,29.97,10.0,Calm,Calm,-,N/A,,Overcast,0,2013-03-24 00:55:00
9:15 PM,50.7,43.0,75,29.99,10.0,Calm,Calm,-,N/A,,Overcast,0,2013-03-24 01:15:00
9:35 PM,50.5,42.6,74,29.99,10.0,Calm,Calm,-,N/A,,Overcast,0,2013-03-24 01:35:00
9:55 PM,50.4,42.8,75,29.98,10.0,Calm,Calm,-,N/A,,Overcast,0,2013-03-24 01:55:00
10:15 PM,48.6,43.0,81,29.98,10.0,Calm,Calm,-,N/A,,Scattered Clouds,0,2013-03-24 02:15:00
10:35 PM,46.9,42.6,85,29.96,10.0,Calm,Calm,-,N/A,,Clear,0,2013-03-24 02:35:00
10:55 PM,46.4,41.5,83,29.96,10.0,Calm,Calm,-,N/A,,Clear,0,2013-03-24 02:55:00
11:15 PM,44.6,40.8,87,29.94,10.0,Calm,Calm,-,N/A,,Clear,0,2013-03-24 03:15:00
11:35 PM,44.2,40.5,87,29.93,10.0,Calm,Calm,-,N/A,,Clear,0,2013-03-24 03:35:00
11:55 PM,44.4,40.8,87,29.93,10.0,Calm,Calm,-,N/A,,Clear,0,2013-03-24 03:55:00